This is the latest recevied weather packets stored in our database for station/object KC2TER. If no packets are shown the sender has not sent any weather packets the latest 1 day(s).
| Time | Temp. | Humidity | Pressure | Rain* | Wind** | Luminosity | Snow |
|---|---|---|---|---|---|---|---|
| 1778012203 | 23.89° C | 59% | 1008.8 hPa | 0 mm | 1.34 m/s, 108° | 338 W/m² | - |
| 1778011901 | 23.89° C | 60% | 1008.6 hPa | 0 mm | 0.45 m/s, 76° | 387 W/m² | - |
| 1778011599 | 23.89° C | 60% | 1008.7 hPa | 0 mm | 0.45 m/s, 86° | 377 W/m² | - |
| 1778011295 | 24.44° C | 58% | 1008.8 hPa | 0 mm | 2.24 m/s, 60° | 391 W/m² | - |
| 1778010991 | 24.44° C | 59% | 1008.9 hPa | 0 mm | 0.89 m/s, 60° | 474 W/m² | - |
| 1778010689 | 24.44° C | 57% | 1008.7 hPa | 0 mm | 2.24 m/s, 137° | 514 W/m² | - |
| 1778010386 | 25° C | 57% | 1008.9 hPa | 0 mm | 1.79 m/s, 330° | 562 W/m² | - |
| 1778010081 | 25.56° C | 56% | 1008.9 hPa | 0 mm | 1.79 m/s, 110° | 515 W/m² | - |
| 1778009779 | 25° C | 58% | 1009 hPa | 0 mm | 0.45 m/s, 92° | 566 W/m² | - |
| 1778009476 | 25° C | 57% | 1009 hPa | 0 mm | 1.79 m/s, 114° | 582 W/m² | - |
| 1778009174 | 25.56° C | 57% | 1009.1 hPa | 0 mm | 2.24 m/s, 103° | 609 W/m² | - |
| 1778008871 | 25.56° C | 58% | 1009.1 hPa | 0 mm | 0.89 m/s, 68° | 632 W/m² | - |
| 1778008569 | 25.56° C | 57% | 1009.4 hPa | 0 mm | 1.34 m/s, 106° | 637 W/m² | - |
| 1778008267 | 25.56° C | 58% | 1009.5 hPa | 0 mm | 0.89 m/s, 171° | 663 W/m² | - |
| 1778007962 | 25° C | 57% | 1009.1 hPa | 0 mm | 1.34 m/s, 75° | 652 W/m² | - |
| 1778007658 | 25° C | 59% | 1009.2 hPa | 0 mm | 1.34 m/s, 93° | 606 W/m² | - |
| 1778007355 | 25° C | 58% | 1009.3 hPa | 0 mm | 0.45 m/s, 90° | 670 W/m² | - |
| 1778007051 | 25° C | 59% | 1009.6 hPa | 0 mm | 1.79 m/s, 48° | 723 W/m² | - |
| 1778006748 | 25° C | 57% | 1009.4 hPa | 0 mm | 2.24 m/s, 96° | 791 W/m² | - |
| 1778006445 | 25° C | 58% | 1009.5 hPa | 0 mm | 0.89 m/s, 89° | 763 W/m² | - |
| 1778006141 | 25° C | 57% | 1009.6 hPa | 0 mm | 2.24 m/s, 22° | 784 W/m² | - |
| 1778005839 | 25.56° C | 55% | 1009.8 hPa | 0 mm | 2.24 m/s, 54° | 756 W/m² | - |
| 1778005535 | 25.56° C | 57% | 1009.8 hPa | 0 mm | 0.89 m/s, 101° | 815 W/m² | - |
| 1778005232 | 25.56° C | 57% | 1009.9 hPa | 0 mm | 1.34 m/s, 101° | 814 W/m² | - |
| 1778004928 | 25° C | 57% | 1009.9 hPa | 0 mm | 0.89 m/s, 54° | 845 W/m² | - |
* Rain latest hour (hover to see other rain measurements)
** Current wind speed in m/s (hover to see current wind gust speed)